Zurück zum Katalog

DELTA 1 R/B

CEP 1

AktivSSO
NORAD 4794·ROCKET BODY·🇺🇸 United States

Gestartet Dec 11, 1970 von Vandenberg Space Force Base

Loading…

Nächste Überflüge

TLE

Source: Space-Track
1  4794U 70106B   26224.02311588 -.00000029  00000-0  85454-4 0  9994
2  4794 101.3032 229.5113 0036256 237.4770 142.0385 12.53275401938419

Verfolge DELTA 1 R/B in Echtzeit mit AllMySat

Download on the App Store